H1 CPF 1 NER 2017 5 25 9 6451 glonass101 H2 0606203 9101 29672 2017 5 25 0 0 0 2017 5 28 23 45 0 900 1 1 0 0 0 H9 10 0 57898 0.00000 0 7985158.836 23077034.721 7484020.040 10 0 57898 900.00000 0 7607217.994 22017226.937 10460358.847 10 0 57898 1800.00000 0 6957807.980 20692762.957 13234134.996 10 0 57898 2700.00000 0 6015584.838 19160453.647 15751471.278 10 0 57898 3600.00000 0 4771447.516 17482268.559 17963380.069 10 0 57898 4500.00000 0 3229199.469 15722761.583 19826721.351 10 0 57898 5400.00000 0 1405671.251 13946402.023 21305053.261 10 0 57898 6300.00000 0 -669704.816 12214922.059 22369357.877 10 0 57898 7200.00000 0 -2955853.602 10584791.526 22998626.958 10 0 57898 8100.00000 0 -5401513.241 9104926.162 23180294.858 10 0 57898 9000.00000 0 -7947130.567 7814726.233 22910508.473 10 0 57898 9900.00000 0 -10527119.151 6742529.087 22194227.102 10 0 57898 10800.00000 0 -13072387.304 5904542.085 21045148.364 10 0 57898 11700.00000 0 -15513031.212 5304302.186 19485459.816 10 0 57898 12600.00000 0 -17781080.443 4932686.271 17545419.504 10 0 57898 13500.00000 0 -19813180.118 4768472.570 15262772.507 10 0 57898 14400.00000 0 -21553095.956 4779429.789 12682014.129 10 0 57898 15300.00000 0 -22953935.377 4923887.449 9853514.156 10 0 57898 16200.00000 0 -23979989.668 5152719.826 6832519.887 10 0 57898 17100.00000 0 -24608118.393 5411657.551 3678058.629 10 0 57898 18000.00000 0 -24828616.870 5643826.497 451762.995 10 0 57898 18900.00000 0 -24645530.137 5792403.495 -2783355.870 10 0 57898 19800.00000 0 -24076400.948 5803273.431 -5964160.824 10 0 57898 20700.00000 0 -23151463.959 5627572.435 -9028640.076 10 0 57898 21600.00000 0 -21912322.377 5224007.256 -11917130.929 10 0 57898 22500.00000 0 -20410165.453 4560851.127 -14573490.422 10 0 57898 23400.00000 0 -18703604.666 3617531.012 -16946189.081 10 0 57898 24300.00000 0 -16856222.163 2385739.321 -18989306.282 10 0 57898 25200.00000 0 -14933936.394 870023.857 -20663408.486 10 0 57898 26100.00000 0 -13002296.714 -912167.535 -21936294.481 10 0 57898 27000.00000 0 -11123820.501 -2930988.166 -22783595.051 10 0 57898 27900.00000 0 -9355483.400 -5145217.215 -23189217.703 10 0 57898 28800.00000 0 -7746465.921 -7503764.029 -23145630.200 10 0 57898 29700.00000 0 -6336247.974 -9947588.702 -22653979.816 10 0 57898 30600.00000 0 -5153127.787 -12411959.066 -21724048.134 10 0 57898 31500.00000 0 -4213223.827 -14828950.824 -20374043.959 10 0 57898 32400.00000 0 -3519998.138 -17130088.349 -18630239.556 10 0 57898 33300.00000 0 -3064318.145 -19249018.328 -16526457.790 10 0 57898 34200.00000 0 -2825052.140 -21124107.347 -14103420.136 10 0 57898 35100.00000 0 -2770171.977 -22700857.894 -11407967.562 10 0 57898 36000.00000 0 -2858316.060 -23934044.618 -8492168.288 10 0 57898 36900.00000 0 -3040747.130 -24789483.877 -5412328.369 10 0 57898 37800.00000 0 -3263623.272 -25245364.412 -2227922.570 10 0 57898 38700.00000 0 -3470487.784 -25293084.541 999535.511 10 0 57898 39600.00000 0 -3604874.412 -24937561.124 4207663.818 10 0 57898 40500.00000 0 -3612919.506 -24196996.922 7334401.674 10 0 57898 41400.00000 0 -3445871.905 -23102114.965 10319197.413 10 0 57898 42300.00000 0 -3062395.227 -21694890.357 13104171.800 10 0 57898 43200.00000 0 -2430565.195 -20026830.627 15635235.511 10 0 57898 44100.00000 0 -1529476.774 -18156874.501 17863139.444 10 0 57898 45000.00000 0 -350391.578 -16148995.037 19744437.420 10 0 57898 45900.00000 0 1102625.363 -14069605.653 21242342.325 10 0 57898 46800.00000 0 2812609.445 -11984876.236 22327458.304 10 0 57898 47700.00000 0 4750148.501 -9958070.855 22978373.659 10 0 57898 48600.00000 0 6874367.638 -8047018.280 23182101.520 10 0 57898 49500.00000 0 9134409.105 -6301821.491 22934358.035 10 0 57898 50400.00000 0 11471348.026 -4762903.013 22239670.745 10 0 57898 51300.00000 0 13820466.057 -3459469.149 21111313.197 10 0 57898 52200.00000 0 16113789.105 -2408458.824 19571065.133 10 0 57898 53100.00000 0 18282783.162 -1614022.503 17648801.406 10 0 57898 54000.00000 0 20261094.851 -1067553.951 15381916.406 10 0 57898 54900.00000 0 21987220.513 -748273.918 12814594.486 10 0 57898 55800.00000 0 23406990.017 -624340.886 9996940.652 10 0 57898 56700.00000 0 24475759.027 -654440.912 6983989.028 10 0 57898 57600.00000 0 25160215.665 -789787.574 3834609.695 10 0 57898 58500.00000 0 25439724.101 -976444.991 610337.130 10 0 57898 59400.00000 0 25307147.725 -1157872.647 -2625854.713 10 0 57898 60300.00000 0 24769117.263 -1277581.156 -5810804.354 10 0 57898 61200.00000 0 23845733.469 -1281783.490 -8882414.900 10 0 57898 62100.00000 0 22569718.597 -1121926.816 -11780879.775 10 0 57898 63000.00000 0 20985054.653 -756995.775 -14449856.604 10 0 57898 63900.00000 0 19145168.294 -155488.649 -16837565.268 10 0 57898 64800.00000 0 17110741.193 703017.424 -18897788.604 10 0 57898 65700.00000 0 14947239.928 1826777.831 -20590756.794 10 0 57898 66600.00000 0 12722270.490 3211313.253 -21883899.462 10 0 57898 67500.00000 0 10502868.762 4839386.291 -22752452.722 10 0 57898 68400.00000 0 8352839.855 6681521.480 -23179911.645 10 0 57898 69300.00000 0 6330256.131 8697045.525 -23158321.750 10 0 57898 70200.00000 0 4485216.016 10835603.366 -22688406.295 10 0 57898 71100.00000 0 2857954.161 13039086.473 -21779529.028 10 0 57898 72000.00000 0 1477378.435 15243893.177 -20449494.872 10 0 57898 72900.00000 0 360091.345 17383427.904 -18724193.609 10 0 57898 73800.00000 0 -490066.560 19390736.808 -16637094.043 10 0 57898 74700.00000 0 -1081934.941 21201172.012 -14228598.491 10 0 57898 75600.00000 0 -1436419.130 22754975.801 -11545269.504 10 0 57898 76500.00000 0 -1585369.873 23999679.378 -8638942.750 10 0 57898 77400.00000 0 -1570004.791 24892218.194 -5565741.885 10 0 57898 78300.00000 0 -1438937.655 25400677.275 -2385012.871 10 0 57898 79200.00000 0 -1245897.499 25505594.744 841803.428 10 0 57898 80100.00000 0 -1047232.378 25200769.425 4052340.125 10 0 57898 81000.00000 0 -899301.608 24493538.460 7184493.657 10 0 57898 81900.00000 0 -855865.239 23404512.276 10177611.990 10 0 57898 82800.00000 0 -965580.005 21966776.377 12973659.662 10 0 57898 83700.00000 0 -1269707.100 20224591.289 15518337.914 10 0 57898 84600.00000 0 -1800128.961 18231642.710 17762138.674 10 0 57898 85500.00000 0 -2577759.828 16048912.707 19661311.900 10 0 57899 0.00000 0 -3611419.045 13742258.787 21178727.246 10 0 57899 900.00000 0 -4897217.719 11379800.086 22284612.711 10 0 57899 1800.00000 0 -6418486.330 9029218.652 22957154.509 10 0 57899 2700.00000 0 -8146252.023 6755088.106 23182945.486 10 0 57899 3600.00000 0 -10040246.823 4616340.507 22957271.477 10 0 57899 4500.00000 0 -12050408.936 2663978.509 22284228.146 10 0 57899 5400.00000 0 -14118816.174 939128.984 21176664.202 10 0 57899 6300.00000 0 -16181972.348 -528479.123 19655950.174 10 0 57899 7200.00000 0 -18173351.500 -1721547.662 17751575.683 10 0 57899 8100.00000 0 -20026093.141 -2635708.527 15500581.794 10 0 57899 9000.00000 0 -21675734.386 -3279467.711 12946838.773 10 0 57899 9900.00000 0 -23062862.510 -3673596.482 10140183.315 10 0 57899 10800.00000 0 -24135574.372 -3849996.141 7135432.580 10 0 57899 11700.00000 0 -24851637.058 -3850085.803 3991295.514 10 0 57899 12600.00000 0 -25180256.833 -3722783.552 769204.543 10 0 57899 13500.00000 0 -25103380.492 -3522169.217 -2467907.377 10 0 57899 14400.00000 0 -24616473.607 -3304930.795 -5656858.072 10 0 57899 15300.00000 0 -23728743.072 -3127705.834 -8735468.934 10 0 57899 16200.00000 0 -22462795.628 -3044433.214 -11643792.621 10 0 57899 17100.00000 0 -20853748.442 -3103829.811 -14325290.098 10 0 57899 18000.00000 0 -18947831.421 -3347100.344 -16727932.962 10 0 57899 18900.00000 0 -16800542.354 -3805977.970 -18805209.376 10 0 57899 19800.00000 0 -14474434.460 -4501178.232 -20517014.552 10 0 57899 20700.00000 0 -12036630.830 -5441330.677 -21830409.618 10 0 57899 21600.00000 0 -9556170.675 -6622431.761 -22720236.021 10 0 57899 22500.00000 0 -7101298.273 -8027840.407 -23169575.728 10 0 57899 23400.00000 0 -4736806.866 -9628814.767 -23170050.725 10 0 57899 24300.00000 0 -2521546.321 -11385566.363 -22721958.401 10 0 57899 25200.00000 0 -506195.707 -13248786.721 -21834242.359 10 0 57899 26100.00000 0 1268609.568 -15161582.426 -20524300.973 10 0 57899 27000.00000 0 2773721.569 -17061738.317 -18817638.622 10 0 57899 27900.00000 0 3992437.858 -18884215.528 -16747366.981 10 0 57899 28800.00000 0 4920936.859 -20563781.760 -14353566.073 10 0 57899 29700.00000 0 5568174.968 -22037666.089 -11682516.923 10 0 57899 30600.00000 0 5955251.611 -23248129.673 -8785819.618 10 0 57899 31500.00000 0 6114269.818 -24144847.041 -5719412.551 10 0 57899 32400.00000 0 6086740.456 -24687000.232 -2542510.191 10 0 57899 33300.00000 0 5921596.692 -24844999.489 683521.791 10 0 57899 34200.00000 0 5672901.242 -24601759.071 3896333.894 10 0 57899 35100.00000 0 5397341.709 -23953474.688 7033781.669 10 0 57899 36000.00000 0 5151618.235 -22909869.094 10035114.480 10 0 57899 36900.00000 0 4989832.477 -21493894.034 12842142.177 10 0 57899 37800.00000 0 4960987.346 -19740898.879 15400357.889 10 0 57899 38700.00000 0 5106702.849 -17697298.244 17659995.663 10 0 57899 39600.00000 0 5459244.960 -15418791.659 19577002.448 10 0 57899 40500.00000 0 6039951.979 -12968207.130 21113905.287 10 0 57899 41400.00000 0 6858126.792 -10413056.257 22240556.255 10 0 57899 42300.00000 0 7910444.342 -7822901.235 22934739.501 10 0 57899 43200.00000 0 9180902.359 -5266642.258 23182627.316 10 0 57899 44100.00000 0 10641320.699 -2809837.928 22979074.632 10 0 57899 45000.00000 0 12252371.436 -512170.564 22327744.372 10 0 57899 45900.00000 0 13965099.143 1574837.157 21241059.293 10 0 57899 46800.00000 0 15722869.608 3409757.850 19739979.371 10 0 57899 47700.00000 0 17463666.310 4962765.115 17853607.443 10 0 57899 48600.00000 0 19122638.442 6216645.070 15618629.509 10 0 57899 49500.00000 0 20634792.744 7167270.488 13078599.837 10 0 57899 50400.00000 0 21937714.430 7823517.211 10283084.717 10 0 57899 51300.00000 0 22974200.667 8206626.779 7286682.094 10 0 57899 52200.00000 0 23694693.383 8349043.312 4147937.363 10 0 57899 53100.00000 0 24059406.576 8292775.625 928178.374 10 0 57899 54000.00000 0 24040056.553 8087356.441 -2309705.505 10 0 57899 54900.00000 0 23621120.820 7787488.057 -5502513.983 10 0 57899 55800.00000 0 22800572.084 7450477.301 -8587989.231 10 0 57899 56700.00000 0 21590056.749 7133571.487 -11506045.469 10 0 57899 57600.00000 0 20014511.571 6891310.761 -14199949.095 10 0 57899 58500.00000 0 18111236.304 6773010.839 -16617425.247 10 0 57899 59400.00000 0 15928463.461 6820483.652 -18711668.966 10 0 57899 60300.00000 0 13523487.208 7066092.434 -20442241.770 10 0 57899 61200.00000 0 10960431.695 7531222.621 -21775837.342 10 0 57899 62100.00000 0 8307753.338 8225231.693 -22686903.275 10 0 57899 63000.00000 0 5635581.721 9144920.419 -23158109.031 10 0 57899 63900.00000 0 3013009.631 10274545.770 -23180653.400 10 0 57899 64800.00000 0 505443.581 11586373.215 -22754407.959 10 0 57899 65700.00000 0 -1827877.180 13041743.904 -21887895.896 10 0 57899 66600.00000 0 -3936092.806 14592611.211 -20598108.399 10 0 57899 67500.00000 0 -5778577.524 16183482.282 -18910163.448 10 0 57899 68400.00000 0 -7326363.086 17753683.996 -16856814.222 10 0 57899 69300.00000 0 -8563075.007 19239859.813 -14477816.760 10 0 57899 70200.00000 0 -9485345.426 20578594.842 -11819168.584 10 0 57899 71100.00000 0 -10102687.688 21709061.335 -8932231.999 10 0 57899 72000.00000 0 -10436839.332 22575575.948 -5872757.744 10 0 57899 72900.00000 0 -10520601.778 23129963.572 -2699826.294 10 0 57899 73800.00000 0 -10396225.396 23333630.180 525274.471 10 0 57899 74700.00000 0 -10113407.088 23159258.636 3740215.083 10 0 57899 75600.00000 0 -9726983.573 22592056.562 6882812.847 10 0 57899 76500.00000 0 -9294416.140 21630503.256 9892221.165 10 0 57899 77400.00000 0 -8873171.542 20286563.012 12710097.787 10 0 57899 78300.00000 0 -8518108.398 18585353.808 15281730.245 10 0 57899 79200.00000 0 -8278978.664 16564282.671 17557097.131 10 0 57899 80100.00000 0 -8198149.563 14271681.047 19491844.664 10 0 57899 81000.00000 0 -8308642.679 11764994.280 21048159.384 10 0 57899 81900.00000 0 -8632574.309 9108597.989 22195519.374 10 0 57899 82800.00000 0 -9180064.844 6371330.163 22911308.332 10 0 57899 83700.00000 0 -9948665.682 3623840.049 23181279.246 10 0 57899 84600.00000 0 -10923330.732 935863.156 22999856.986 10 0 57899 85500.00000 0 -12076936.635 -1626464.346 22370272.063 10 0 57900 0.00000 0 -13371332.500 -4003139.675 21304521.078 10 0 57900 900.00000 0 -14758877.469 -6142569.313 19823152.526 10 0 57900 1800.00000 0 -16184402.365 -8003490.931 17954881.022 10 0 57900 2700.00000 0 -17587514.217 -9556458.605 15736035.400 10 0 57900 3600.00000 0 -18905145.822 -10784829.615 13209851.283 10 0 57900 4500.00000 0 -20074241.974 -11685209.353 10425621.434 10 0 57900 5400.00000 0 -21034467.227 -12267336.289 7437721.100 10 0 57900 6300.00000 0 -21730818.693 -12553412.319 4304528.405 10 0 57900 7200.00000 0 -22116031.112 -12576908.235 1087262.753 10 0 57900 8100.00000 0 -22152670.424 -12380897.021 -2151233.974 10 0 57900 9000.00000 0 -21814825.614 -12015988.245 -5347747.221 10 0 57900 9900.00000 0 -21089326.330 -11537954.051 -8439943.671 10 0 57900 10800.00000 0 -19976434.591 -11005150.409 -11367602.636 10 0 57900 11700.00000 0 -18489981.941 -10475845.617 -14073799.223 10 0 57900 12600.00000 0 -16656947.511 -10005571.354 -16506015.034 10 0 57900 13500.00000 0 -14516496.446 -9644609.790 -18617154.466 10 0 57900 14400.00000 0 -12118520.921 -9435723.441 -20366447.280 10 0 57900 15300.00000 0 -9521746.757 -9412223.220 -21720221.011 10 0 57900 16200.00000 0 -6791486.183 -9596454.906 -22652530.004 10 0 57900 17100.00000 0 -3997131.256 -9998765.974 -23145631.081 10 0 57900 18000.00000 0 -1209492.439 -10616994.057 -23190299.013 10 0 57900 18900.00000 0 1501907.920 -11436496.381 -22785978.090 10 0 57900 19800.00000 0 4071476.488 -12430716.990 -21940769.053 10 0 57900 20700.00000 0 6440016.924 -13562266.558 -20671253.425 10 0 57900 21600.00000 0 8556925.521 -14784468.772 -19002159.935 10 0 57900 22500.00000 0 10382026.552 -16043308.464 -16965880.157 10 0 57900 23400.00000 0 11886974.230 -17279700.577 -14601842.842 10 0 57900 24300.00000 0 13056166.010 -18431986.196 -11955758.576 10 0 57900 25200.00000 0 13887131.686 -19438552.798 -9078748.388 10 0 57900 26100.00000 0 14390383.861 -20240470.786 -6026371.886 10 0 57900 27000.00000 0 14588737.214 -20784037.632 -2857572.144 10 0 57900 27900.00000 0 14516125.423 -21023124.507 366443.995 10 0 57900 28800.00000 0 14215965.022 -20921227.983 3583370.109 10 0 57900 29700.00000 0 13739134.029 -20453141.149 6730987.986 10 0 57900 30600.00000 0 13141649.102 -19606173.625 9748357.428 10 0 57900 31500.00000 0 12482137.556 -18380868.167 12576986.068 10 0 57900 32400.00000 0 11819209.423 -16791181.921 15161957.406 10 0 57900 33300.00000 0 11208839.211 -14864122.178 17452995.727 10 0 57900 34200.00000 0 10701867.200 -12638848.974 19405447.268 10 0 57900 35100.00000 0 10341725.608 -10165278.860 20981158.405 10 0 57900 36000.00000 0 10162486.206 -7502245.016 22149233.204 10 0 57900 36900.00000 0 10187313.039 -4715287.667 22886654.523 10 0 57900 37800.00000 0 10427387.394 -1874164.603 23178755.327 10 0 57900 38700.00000 0 10881352.726 949816.255 23019529.399 10 0 57900 39600.00000 0 11535305.504 3686531.912 22411773.536 10 0 57900 40500.00000 0 12363334.891 6269733.273 21367056.572 10 0 57900 41400.00000 0 13328590.820 8639575.478 19905513.913 10 0 57900 42300.00000 0 14384837.062 10744882.881 18055469.926 10 0 57900 43200.00000 0 15478424.784 12545052.858 15852894.213 10 0 57900 44100.00000 0 16550603.388 14011517.438 13340701.505 10 0 57900 45000.00000 0 17540070.293 15128700.408 10567908.696 10 0 57900 45900.00000 0 18385650.373 15894429.183 7588665.861 10 0 57900 46800.00000 0 19028989.680 16319784.299 4461181.303 10 0 57900 47700.00000 0 19417147.067 16428393.778 1246563.397 10 0 57900 48600.00000 0 19504971.673 16255203.956 -1992396.031 10 0 57900 49500.00000 0 19257163.526 15844781.153 -5192470.650 10 0 57900 50400.00000 0 18649928.570 15249218.903 -8291253.984 10 0 57900 51300.00000 0 17672157.314 14525742.428 -11228392.553 10 0 57900 52200.00000 0 16326077.250 13734114.663 -13946772.028 10 0 57900 53100.00000 0 14627352.263 12933956.108 -16393632.039 10 0 57900 54000.00000 0 12604626.093 12182093.612 -18521587.628 10 0 57900 54900.00000 0 10298530.625 11530050.984 -20289537.841 10 0 57900 55800.00000 0 7760202.363 11021787.287 -21663444.884 10 0 57900 56700.00000 0 5049370.562 10691777.158 -22616970.476 10 0 57900 57600.00000 0 2232097.845 10563512.219 -23131959.243 10 0 57900 58500.00000 0 -621732.175 10648484.345 -23198762.151 10 0 57900 59400.00000 0 -3441076.256 10945690.977 -22816396.167 10 0 57900 60300.00000 0 -6156432.630 11441680.835 -21992539.229 10 0 57900 61200.00000 0 -8702471.650 12111136.017 -20743362.489 10 0 57900 62100.00000 0 -11020489.520 12917964.592 -19093204.354 10 0 57900 63000.00000 0 -13060586.281 13816857.121 -17074093.355 10 0 57900 63900.00000 0 -14783480.683 14755241.813 -14725129.209 10 0 57900 64800.00000 0 -16161889.560 15675557.050 -12091733.576 10 0 57900 65700.00000 0 -17181416.954 16517747.231 -9224784.043 10 0 57900 66600.00000 0 -17840917.955 17221878.837 -6179646.813 10 0 57900 67500.00000 0 -18152323.498 17730768.650 -3015125.229 10 0 57900 68400.00000 0 -18139934.113 17992515.401 207657.250 10 0 57900 69300.00000 0 -17839212.090 17962829.752 3426419.601 10 0 57900 70200.00000 0 -17295122.087 17607065.407 6578910.443 10 0 57900 71100.00000 0 -16560088.670 16901866.017 9604098.333 10 0 57900 72000.00000 0 -15691655.208 15836357.866 12443343.128 10 0 57900 72900.00000 0 -14749941.098 14412836.690 15041526.629 10 0 57900 73800.00000 0 -13795002.993 12646917.450 17348121.095 10 0 57900 74700.00000 0 -12884210.116 10567137.921 19318174.976 10 0 57900 75600.00000 0 -12069743.677 8214029.386 20913196.560 10 0 57900 76500.00000 0 -11396325.780 5638689.875 22101917.773 10 0 57900 77400.00000 0 -10899274.217 2900916.331 22860922.279 10 0 57900 78300.00000 0 -10602966.360 66970.726 23175124.367 10 0 57900 79200.00000 0 -10519778.701 -2792929.026 23038087.714 10 0 57900 80100.00000 0 -10649548.827 -5607290.262 22452175.970 10 0 57900 81000.00000 0 -10979584.751 -8306087.861 21428530.326 10 0 57900 81900.00000 0 -11485223.282 -10823453.297 19986872.603 10 0 57900 82800.00000 0 -12130915.583 -13100197.415 18155136.003 10 0 57900 83700.00000 0 -12871795.167 -15086060.403 15968929.383 10 0 57900 84600.00000 0 -13655662.437 -16741593.472 13470844.585 10 0 57900 85500.00000 0 -14425301.357 -18039591.946 10709620.157 10 0 57901 0.00000 0 -15121028.999 -18966018.750 7739178.231 10 0 57901 900.00000 0 -15683367.854 -19520378.864 4617554.026 10 0 57901 1800.00000 0 -16055726.077 -19715529.911 1405741.589 10 0 57901 2700.00000 0 -16186968.215 -19576936.993 -1833520.817 10 0 57901 3600.00000 0 -16033766.662 -19141406.487 -5036998.659 10 0 57901 4500.00000 0 -15562631.147 -18455353.933 -8142215.907 10 0 57901 5400.00000 0 -14751529.532 -17572682.678 -11088689.850 10 0 57901 6300.00000 0 -13591030.642 -16552365.828 -13819120.161 10 0 57901 7200.00000 0 -12084921.084 -15455836.485 -16280507.747 10 0 57901 8100.00000 0 -10250270.908 -14344298.660 -18425181.234 10 0 57901 9000.00000 0 -8116946.597 -13276073.666 -20211711.477 10 0 57901 9900.00000 0 -5726593.453 -12304094.261 -21605697.355 10 0 57901 10800.00000 0 -3131131.412 -11473651.417 -22580409.369 10 0 57901 11700.00000 0 -390828.280 -10820486.955 -23117280.699 10 0 57901 12600.00000 0 2427968.589 -10369309.966 -23206238.604 10 0 57901 13500.00000 0 5255347.901 -10132796.616 -22845872.192 10 0 57901 14400.00000 0 8020493.658 -10111112.455 -22043435.502 10 0 57901 15300.00000 0 10654379.120 -10291974.658 -20814687.701 10 0 57901 16200.00000 0 13092385.994 -10651249.382 -19183574.813 10 0 57901 17100.00000 0 15276742.876 -11154057.652 -17181759.869 10 0 57901 18000.00000 0 17158684.590 -11756342.664 -14848010.724 10 0 57901 18900.00000 0 18700245.637 -12406832.731 -12227456.954 10 0 57901 19800.00000 0 19875615.904 -13049318.207 -9370729.257 10 0 57901 20700.00000 0 20672004.240 -13625148.006 -6332996.753 10 0 57901 21600.00000 0 21089975.587 -14075842.377 -3172919.242 10 0 57901 22500.00000 0 21143248.403 -14345713.684 48467.051 10 0 57901 23400.00000 0 20857961.027 -14384386.409 3268910.251 10 0 57901 24300.00000 0 20271437.193 -14149111.348 6426129.341 10 0 57901 25200.00000 0 19430501.427 -13606776.994 9459004.813 10 0 57901 26100.00000 0 18389413.553 -12735533.124 12308751.507 10 0 57901 27000.00000 0 17207507.485 -11525957.123 14920051.783 10 0 57901 27900.00000 0 15946631.900 -9981712.027 17242127.619 10 0 57901 28800.00000 0 14668499.022 -8119665.982 19229730.910 10 0 57901 29700.00000 0 13432052.030 -5969464.908 20844032.587 10 0 57901 30600.00000 0 12290961.305 -3572572.688 22053392.724 10 0 57901 31500.00000 0 11291355.003 -980815.562 22833995.632 10 0 57901 32400.00000 0 10469880.113 1745511.787 23170336.375 10 0 57901 33300.00000 0 9852176.834 4539902.259 23055547.604 10 0 57901 34200.00000 0 9451832.151 7332162.362 22491558.553 10 0 57901 35100.00000 0 9269858.522 10051104.248 21489081.188 10 0 57901 36000.00000 0 9294721.476 12627291.880 20067421.874 10 0 57901 36900.00000 0 9502916.566 14995726.286 18254120.529 10 0 57901 37800.00000 0 9860072.425 17098356.743 16084422.917 10 0 57901 38700.00000 0 10322533.773 18886311.429 13600595.464 10 0 57901 39600.00000 0 10839357.135 20321752.487 10851095.693 10 0 57901 40500.00000 0 11354633.707 21379276.304 7889614.855 10 0 57901 41400.00000 0 11810039.157 22046799.254 4774012.448 10 0 57901 42300.00000 0 12147499.995 22325891.331 1565165.167 10 0 57901 43200.00000 0 12311860.816 22231544.180 -1674245.142 10 0 57901 44100.00000 0 12253436.718 21791384.767 -4880978.486 10 0 57901 45000.00000 0 11930340.385 21044369.954 -7992491.790 10 0 57901 45900.00000 0 11310483.439 20039019.867 -10948175.361 10 0 57901 46800.00000 0 10373166.263 18831267.544 -13690544.804 10 0 57901 47700.00000 0 9110188.793 17482018.544 -16166363.896 10 0 57901 48600.00000 0 7526435.787 16054525.890 -18327676.123 10 0 57901 49500.00000 0 5639912.877 14611692.734 -20132725.143 10 0 57901 50400.00000 0 3481233.289 13213417.146 -21546747.265 10 0 57901 51300.00000 0 1092578.153 11914090.537 -22542622.307 10 0 57901 52200.00000 0 -1473824.854 10760353.553 -23101372.335 10 0 57901 53100.00000 0 -4157640.081 9789201.656 -23212501.013 10 0 57901 54000.00000 0 -6892698.717 9026517.081 -22874169.434 10 0 57901 54900.00000 0 -9609515.676 8486085.671 -22093207.259 10 0 57901 55800.00000 0 -12237945.057 8169136.725 -20884960.843 10 0 57901 56700.00000 0 -14709865.817 8064422.362 -19272982.627 10 0 57901 57600.00000 0 -16961788.525 8148830.795 -17288568.587 10 0 57901 58500.00000 0 -18937277.584 8388506.320 -14970152.859 10 0 57901 59400.00000 0 -20589091.086 8740428.295 -12362570.857 10 0 57901 60300.00000 0 -21880951.952 9154382.881 -9516204.156 10 0 57901 61200.00000 0 -22788878.809 9575245.473 -6486022.484 10 0 57901 62100.00000 0 -23302022.856 9945479.064 -3330539.757 10 0 57901 63000.00000 0 -23422976.849 10207744.936 -110702.638 10 0 57901 63900.00000 0 -23167543.542 10307517.242 3111268.483 10 0 57901 64800.00000 0 -22563972.977 10195592.623 6273065.266 10 0 57901 65700.00000 0 -21651699.559 9830389.834 9313482.464 10 0 57901 66600.00000 0 -20479630.420 9179942.647 12173592.215 10 0 57901 67500.00000 0 -19104055.177 8223501.362 14797879.729 10 0 57901 68400.00000 0 -17586262.960 6952674.019 17135318.930 10 0 57901 69300.00000 0 -15989965.061 5372057.003 19140367.267 10 0 57901 70200.00000 0 -14378630.040 3499325.612 20773860.256 10 0 57901 71100.00000 0 -12812842.150 1364777.310 22003787.818 10 0 57901 72000.00000 0 -11347793.684 -989656.791 22805936.355 10 0 57901 72900.00000 0 -10031016.676 -3511894.423 23164382.822 10 0 57901 73800.00000 0 -8900449.953 -6141619.945 23071829.624 10 0 57901 74700.00000 0 -7982924.009 -8812559.814 22529771.992 10 0 57901 75600.00000 0 -7293128.824 -11455022.649 21548492.700 10 0 57901 76500.00000 0 -6833109.680 -13998598.758 20146882.283 10 0 57901 77400.00000 0 -6592313.646 -16374906.397 18352086.585 10 0 57901 78300.00000 0 -6548185.858 -18520269.234 16198987.081 10 0 57901 79200.00000 0 -6667290.950 -20378211.698 13729523.162 10 0 57901 80100.00000 0 -6906912.082 -21901665.911 10991869.348 10 0 57901 81000.00000 0 -7217058.987 -23054795.958 8039483.772 10 0 57901 81900.00000 0 -7542798.310 -23814361.428 4930047.517 10 0 57901 82800.00000 0 -7826805.239 -24170561.959 1724317.203 10 0 57901 83700.00000 0 -8012025.551 -24127327.115 -1515084.681 10 0 57901 84600.00000 0 -8044332.377 -23702040.119 -4724915.743 10 0 57901 85500.00000 0 -7875062.380 -22924708.645 -7842569.032 99